Theta_e
355 353 351 351 351 353 354 352 351 353 352 353 353 354 354 353 353 353 353 353 354 354 354 351 348 349 351 352 351 352 354 354 353 353 353 353 353 353 354 354 355 355
355 354 353 352 351 352 353 353 353 355 355 355 354 354 354 354 355 355 353 353 353 354 356 352 350 349 351 353 352 351 353 353 352 353 353 353 353 353 353 354 355 355
354 355 355 355 354 353 354 354 354 354 353 355 354 353 354 354 355 355 354 354 353 354 355 354 353 350 350 353 352 351 354 353 351 353 354 353 353 353 353 353 354 354
354 355 356 356 355 354 353 352 354 352 350 351 352 352 352 351 352 355 355 355 353 353 354 356 356 353 352 353 352 351 355 356 352 352 353 354 353 353 352 352 353 353
356 355 356 355 354 353 351 350 352 351 350 350 350 350 349 349 350 351 353 355 355 353 353 355 357 355 354 354 351 350 355 357 355 353 351 352 353 354 353 352 352 354
356 356 355 352 351 351 350 350 350 350 349 349 348 348 349 349 349 350 351 353 355 354 352 354 355 355 355 355 351 350 355 356 357 356 352 350 352 353 353 352 352 354
356 355 352 352 352 351 351 349 349 350 350 349 347 348 349 347 349 351 351 351 354 355 352 352 354 355 355 356 353 350 353 355 356 358 355 351 352 353 353 353 354 355
357 354 351 352 353 352 351 350 349 351 352 351 350 349 349 348 349 351 351 351 353 355 354 352 353 355 355 355 355 352 352 354 356 357 355 351 352 352 350 351 355 356
357 355 353 353 352 352 351 351 350 350 351 352 350 348 349 350 350 352 351 351 351 354 355 353 353 355 354 352 354 353 352 354 355 357 356 352 351 351 350 349 352 354
356 356 355 353 352 351 351 350 350 350 350 351 350 349 350 350 351 352 352 351 353 355 356 355 355 355 353 350 352 352 351 354 355 357 359 356 352 352 352 350 350 352
356 357 356 353 351 352 351 350 350 350 350 350 350 350 350 350 350 352 352 352 354 355 355 356 356 354 352 350 351 353 352 354 356 357 357 356 353 352 352 351 350 351
356 357 357 354 352 351 350 350 350 350 350 350 350 350 350 350 350 350 352 353 353 353 353 355 356 355 352 349 350 354 354 353 354 355 355 353 352 352 351 351 352 352
355 356 356 354 351 351 351 350 350 350 350 349 350 350 350 350 350 351 352 352 352 353 353 355 355 355 353 351 349 351 353 352 351 353 353 352 350 351 350 350 351 353
354 355 355 354 352 351 351 351 351 350 350 350 350 350 350 350 350 351 351 351 352 353 352 353 355 354 353 353 350 349 350 352 352 352 352 350 350 350 349 349 350 350
354 355 355 355 355 353 352 351 351 350 350 350 350 350 350 350 350 351 352 351 352 352 351 352 353 354 353 354 352 350 350 352 352 351 351 351 351 349 349 350 350 349
353 354 355 355 356 356 355 353 351 350 350 350 351 350 350 350 351 352 353 352 352 352 352 352 353 353 353 353 353 351 349 350 352 352 351 351 351 349 348 348 349 349
352 352 353 354 355 355 356 355 353 353 353 352 351 350 350 351 351 352 353 353 353 353 352 353 353 352 351 351 351 350 348 349 351 351 351 351 350 349 348 347 348 349
350 351 351 352 353 355 356 356 354 354 354 354 352 351 351 351 352 353 353 353 353 352 352 353 353 352 351 350 350 348 348 349 350 351 351 350 349 349 347 347 349 350
350 350 351 351 353 354 355 355 355 354 354 354 354 353 352 352 353 353 353 354 353 352 352 353 353 352 350 350 350 347 348 349 349 349 349 349 348 348 347 348 351 352
349 349 350 350 352 353 354 354 354 354 354 354 354 354 354 353 353 354 355 355 354 353 352 351 353 352 350 350 351 350 350 350 350 349 348 347 348 348 347 350 353 352
349 349 349 350 351 351 352 352 352 352 353 353 354 354 354 354 353 354 355 355 355 354 352 351 352 352 350 351 352 352 352 351 351 350 349 349 348 348 349 351 352 350
349 349 349 349 350 350 351 351 351 351 351 353 354 354 354 354 353 354 355 354 355 354 353 350 350 350 350 351 352 352 351 350 350 350 349 349 350 351 351 351 350 349
349 349 349 349 350 350 350 350 351 351 351 353 355 355 355 354 353 353 352 353 353 354 353 350 349 349 349 350 352 351 349 348 349 350 350 351 352 352 352 350 350 349
349 349 350 349 350 350 349 349 350 351 351 352 353 354 353 352 352 351 351 352 353 353 353 352 350 350 349 351 352 351 348 348 350 351 352 352 351 351 351 349 349 347
349 350 350 350 350 350 350 349 349 349 350 351 352 352 352 351 351 351 352 353 353 353 353 353 352 351 350 351 351 350 348 349 351 351 351 350 350 351 350 349 347 346
348 349 351 351 350 350 350 351 351 350 349 350 351 352 351 351 352 352 352 353 353 353 353 352 352 352 351 351 351 349 348 350 351 351 350 350 349 349 348 347 345 343
Wind_Speed
32 32 32 31 32 32 32 32 28 25 26 24 23 21 19 18 19 19 19 19 20 21 21 22 23 20 19 19 19 17 16 15 15 14 15 16 16 15 16 16 15 14
31 32 33 33 32 33 33 31 27 24 22 21 21 21 18 16 17 18 19 19 19 20 20 22 23 21 20 19 20 18 17 17 16 15 16 16 16 16 16 16 16 15
30 31 32 33 34 32 29 27 28 27 23 21 21 21 20 18 17 17 18 19 19 19 20 21 22 23 21 20 20 19 18 18 17 16 17 17 16 16 16 16 16 15
30 31 30 30 31 31 28 28 30 30 27 25 24 24 25 23 20 19 18 18 20 20 20 21 21 22 21 20 20 19 17 18 18 17 17 17 17 17 16 16 16 16
27 27 29 30 29 29 30 31 31 31 29 27 25 26 27 26 24 23 20 18 20 21 21 21 21 21 20 20 21 19 17 18 18 18 19 18 18 17 16 17 17 17
22 24 31 34 32 29 30 30 31 32 30 28 26 26 26 26 24 25 23 21 20 21 22 22 22 21 21 21 23 21 18 18 18 18 20 19 18 17 16 16 17 17
21 27 34 35 31 29 29 29 31 32 30 27 28 27 26 27 26 24 24 23 21 21 22 23 23 23 22 22 24 24 21 19 18 19 21 20 18 18 17 16 16 16
21 29 34 32 29 28 28 28 29 30 28 27 28 27 25 27 27 26 25 23 23 23 23 23 23 24 25 23 23 23 22 21 19 20 23 22 19 19 19 18 16 17
21 28 32 31 30 29 28 27 27 28 28 28 29 27 25 27 28 27 27 26 26 25 23 23 24 25 27 26 24 23 23 21 20 20 22 23 22 20 20 20 19 19
21 26 29 29 29 29 28 27 27 28 29 30 29 27 26 27 28 27 27 27 26 26 24 24 25 26 27 27 25 25 24 23 21 20 20 21 22 21 20 20 21 21
20 22 26 27 27 28 28 27 27 28 29 29 27 26 26 28 29 27 26 26 27 28 28 27 26 27 28 27 25 25 24 23 21 21 21 22 23 22 21 22 23 23
18 21 23 24 26 26 26 27 27 28 29 28 26 26 26 28 30 27 25 26 28 30 30 29 28 27 27 27 26 25 25 25 24 23 24 24 22 22 23 23 22 22
18 21 22 23 25 25 24 25 26 27 28 28 27 27 27 29 31 29 25 25 27 29 30 29 28 27 26 27 28 27 27 28 27 26 25 25 23 22 24 23 22 21
18 20 22 22 21 22 22 23 25 26 28 29 29 29 28 28 30 30 28 26 26 28 29 29 29 28 26 27 28 29 29 28 27 27 27 26 24 23 23 24 24 24
17 19 20 20 19 20 22 23 25 25 26 27 28 29 28 27 28 28 28 27 27 28 29 29 29 27 26 26 28 29 31 30 29 29 28 27 25 23 22 22 23 24
16 18 18 18 19 20 21 22 24 24 25 26 27 28 27 25 25 26 26 27 28 28 29 29 29 28 27 27 27 29 32 32 30 29 28 27 26 24 22 22 22 23
16 17 17 18 18 20 21 21 21 21 23 25 27 28 27 25 24 25 27 28 28 28 28 29 30 29 28 28 27 28 32 32 31 30 30 28 26 24 24 24 22 22
17 17 17 18 18 20 21 21 20 20 20 22 25 27 26 24 24 26 28 28 27 27 27 29 30 29 29 29 28 28 31 32 31 31 31 31 28 25 25 24 22 21
18 17 17 17 18 19 21 21 21 21 21 21 23 25 24 23 24 27 27 27 27 27 27 28 29 30 30 29 27 28 30 30 31 32 32 32 30 27 25 23 21 19
18 18 18 17 17 18 20 21 22 21 21 21 23 24 23 22 24 26 26 26 26 26 26 27 28 30 30 28 26 27 28 30 30 30 30 31 31 28 25 22 19 18
17 18 19 19 18 18 19 20 21 20 20 22 23 24 22 22 24 24 24 25 25 24 24 26 28 29 29 27 25 26 28 29 28 28 28 28 27 25 23 21 20 19
16 17 18 18 18 18 18 19 19 20 20 21 22 23 23 23 23 22 22 24 24 23 24 26 28 29 27 25 25 26 28 28 26 26 27 25 23 22 22 20 20 19
15 16 17 17 16 17 18 18 19 19 19 19 20 22 23 23 23 22 23 24 25 24 24 26 28 29 27 26 26 26 27 27 25 23 23 22 22 23 22 21 19 18
13 15 17 18 17 17 17 17 18 20 19 20 22 23 24 23 23 23 24 24 25 25 25 26 28 29 27 26 25 26 27 27 25 23 23 25 26 24 22 21 19 18
13 14 16 18 18 18 17 17 20 21 21 22 24 25 24 23 22 22 22 22 23 24 24 25 27 28 28 25 24 26 27 26 25 26 28 29 28 25 23 21 20 19
13 14 15 17 18 18 18 18 19 21 22 23 24 24 22 20 19 19 20 21 22 23 24 25 27 28 27 25 25 28 29 28 29 31 31 29 28 27 25 24 22 20
Wind_Direction
251 254 256 255 255 253 252 253 251 248 250 247 243 242 239 234 230 227 226 225 227 229 229 231 229 225 229 234 234 234 233 233 233 232 235 236 237 237 237 238 238 241
250 251 252 251 252 253 253 252 245 241 244 245 244 242 237 234 233 232 230 226 226 226 225 228 227 225 227 230 234 234 233 236 236 232 235 237 237 237 238 239 239 241
250 248 247 249 250 248 249 251 248 244 242 243 247 245 237 229 226 232 236 232 229 226 225 226 226 228 227 227 235 236 232 238 239 232 233 236 237 238 238 239 238 239
252 248 245 247 247 243 245 249 251 253 252 251 251 251 249 241 229 227 231 235 235 229 225 224 223 227 227 226 233 236 231 237 241 237 234 234 236 237 237 238 237 237
251 247 244 245 244 245 250 250 250 255 256 255 256 259 258 250 242 237 229 231 239 233 225 224 222 223 223 223 230 233 231 234 240 243 241 237 236 237 236 237 235 235
245 242 245 246 245 245 249 248 250 253 253 252 252 254 253 247 246 248 237 229 235 234 227 225 223 222 221 224 230 232 231 232 234 242 247 244 239 237 236 237 235 235
239 240 245 247 245 244 246 246 246 248 250 252 249 247 248 245 240 242 242 236 235 235 231 227 225 224 221 223 230 234 233 232 229 233 244 245 238 236 233 233 236 236
235 239 244 244 241 242 243 243 243 243 243 247 250 247 245 244 237 234 237 238 235 235 232 228 226 225 225 223 229 235 234 231 228 229 238 241 237 237 235 230 232 236
237 240 243 240 237 239 240 239 239 238 235 238 246 247 242 239 235 232 235 239 238 234 230 229 226 225 230 228 227 234 232 228 226 227 234 240 239 241 241 236 234 237
240 242 244 239 234 236 238 234 230 230 232 234 238 241 239 237 232 228 232 238 237 232 229 228 224 225 231 232 229 232 232 227 226 225 228 236 240 242 243 242 240 240
242 242 242 236 229 230 232 230 227 227 230 232 232 235 237 237 234 229 230 233 233 232 231 229 228 229 232 233 229 230 231 228 225 226 227 233 241 245 245 245 244 242
246 243 239 231 224 225 227 227 227 228 229 229 229 232 233 234 235 233 231 233 231 231 231 231 233 233 233 233 229 228 230 229 226 226 229 233 238 244 248 248 247 246
248 244 242 236 228 226 226 228 228 228 228 228 227 229 229 230 231 231 233 235 232 229 230 231 234 234 233 234 231 228 230 232 230 228 230 232 234 240 247 249 246 247
252 247 247 247 241 233 231 231 230 228 229 229 229 230 231 232 233 232 234 236 232 229 230 230 234 236 234 234 234 231 231 233 233 232 232 234 235 238 244 244 243 245
258 252 250 249 246 240 236 233 232 232 232 233 234 233 234 236 236 234 234 234 231 230 231 230 232 234 234 235 235 233 232 233 233 234 235 237 238 241 244 242 242 245
260 255 251 248 245 243 240 236 233 233 234 236 236 234 232 233 235 235 233 231 230 230 230 229 229 230 232 235 235 233 233 232 233 234 236 238 241 244 246 246 245 245
259 257 253 248 244 243 243 241 237 234 234 234 234 232 228 227 229 231 230 229 228 230 229 228 229 228 230 234 234 233 234 234 234 235 236 238 240 242 244 246 244 243
259 256 255 250 245 243 242 242 239 236 234 232 230 228 224 223 225 227 229 228 229 233 233 230 229 229 230 233 232 232 234 234 235 236 236 238 241 241 242 243 239 238
263 256 254 251 249 246 243 241 239 236 235 233 231 227 223 222 225 228 230 227 227 232 233 231 230 230 231 232 231 232 233 233 235 237 238 239 241 239 238 236 230 229
268 256 252 251 250 249 246 243 239 236 235 233 231 229 226 223 226 229 229 227 226 229 232 232 232 232 233 231 230 232 234 233 234 235 236 237 238 236 232 225 218 220
272 257 250 251 251 249 247 243 240 236 235 235 234 231 227 225 226 228 227 226 227 227 230 233 233 232 233 230 228 231 233 232 231 230 229 230 229 227 222 217 217 221
279 265 254 252 252 250 245 241 240 236 233 235 236 232 229 229 231 232 230 228 229 229 231 233 233 232 232 228 227 230 231 228 226 223 223 220 216 213 212 213 216 217
281 270 258 253 251 249 245 241 239 236 230 230 235 235 234 235 235 236 236 233 231 230 229 231 232 233 231 226 225 228 228 224 218 214 212 207 203 205 208 209 209 208
277 268 259 253 248 246 245 244 241 237 229 228 234 237 237 237 238 238 236 232 229 227 226 227 231 232 229 225 224 226 223 217 209 202 201 199 200 204 204 200 196 195
270 260 255 253 249 245 243 242 240 235 228 226 231 234 235 237 238 234 228 225 223 222 221 224 229 232 229 225 223 222 217 209 201 198 201 203 202 198 192 188 186 187
269 257 251 249 250 248 242 239 237 234 229 227 227 228 229 230 226 221 219 219 219 220 221 224 228 231 229 226 222 217 211 203 200 203 205 204 200 191 184 183 185 185